Location: Unspecified
(34.4950°S, 58.5160°W)
Time: 04:21:53
(UTC+00:00)

Daily predictions for brighter satellites

Satellite Brightness Start Highest point End
(mag) Time Altitude Azimuth Time Altitude Azimuth Time Altitude Azimuth
ATLAS 2AS CENTAUR R/B 4.3 00:22:47 10° NW 00:25:51 28° NW 00:25:51 28° NW
CENTAUR R/B 4.0 07:27:47 43° ESE 07:27:47 43° ESE 07:32:58 10° SE
CZ-3 Stage 3 3.9 07:37:29 74° N 07:37:29 74° N 08:04:23 10° E
ATLAS 2AS CENTAUR R/B 4.1 08:04:06 27° SSE 08:06:32 33° SE 08:13:00 10° ENE
CZ-4C R/B 4.2 08:13:28 15° SE 08:13:31 15° SE 08:16:02 10° ESE
Cosmos 2237 Rocket 4.0 08:18:15 21° N 08:18:15 21° N 08:20:02 10° N
SL-16 R/B 3.3 08:30:35 30° SSE 08:32:44 41° ESE 08:38:04 10° NE
Cosmos 1072 Rocket 4.4 08:37:54 10° N 08:44:01 83° E 08:50:16 10° S
Cosmos 2263 Rocket 4.0 08:52:49 18° S 08:52:49 18° S 08:54:24 10° S
Cosmos 2219 3.1 08:47:46 41° NNW 08:49:54 84° WSW 08:55:43 10° SSE
Cosmos 2058 Rocket 3.6 08:46:30 10° N 08:50:51 59° E 08:55:14 10° SSE
SL-16 R/B 2.7 08:45:05 10° SSE 08:51:24 73° ENE 08:57:35 10° N
Cosmos 192 4.3 08:51:10 77° SSE 08:51:30 83° ESE 08:56:26 10° NNE
Cosmos 1867 3.4 08:51:49 79° W 08:52:01 81° WNW 08:57:24 10° NNE
Cosmos 1900 4.3 08:54:35 70° NW 08:54:35 70° NW 08:59:16 10° NNE
OAO 3 Rocket 4.2 08:59:12 33° NNW 08:59:12 33° NNW 09:03:12 10° NE
Cosmos 1844 Rocket 3.9 08:57:09 10° N 09:02:29 43° ENE 09:07:51 10° SE
USA 215 3.2 09:04:03 10° SE 09:10:38 72° SW 09:15:22 20° WNW
Lacrosse 5 rocket 2.9 09:13:22 18° SSE 09:13:22 18° SSE 09:14:21 10° SSE
Cosmos 1953 Rocket 3.4 09:09:53 45° SSW 09:11:13 84° W 09:15:34 10° N
Cosmos 2034 Rocket 4.0 09:07:15 10° N 09:13:35 85° E 09:20:03 10° S
CZ-4 R/B 3.8 09:11:43 10° N 09:16:21 56° WNW 09:17:18 47° WSW
CENTAUR R/B 3.5 09:15:00 34° WSW 09:16:24 36° SW 09:22:58 10° SSE
CZ-3 R/B 2.5 09:12:26 23° W 09:20:37 57° NNW 09:25:58 10° ENE
Cosmos 2082 3.8 09:15:40 10° NW 09:21:14 53° WSW 09:26:53 10° S
OAO 2 Rocket 3.3 09:20:49 43° W 09:22:26 76° NNW 09:27:25 10° ENE
Meteor 2-6 Rocket 4.2 09:20:01 10° N 09:25:42 85° W 09:31:39 10° S
SMAP 3.1 09:22:56 10° NNE 09:27:37 83° ESE 09:32:21 10° S
SeaSat 1 3.6 09:23:51 10° SE 09:28:36 46° ENE 09:33:17 10° N
Cosmos 44 Rocket 3.1 09:29:58 27° SSW 09:32:31 81° WNW 09:37:20 10° NNE
Cosmos 1570 Rocket 4.0 09:29:51 10° NNW 09:35:03 85° ENE 09:40:20 10° SSE
Centaur D-1A AC-32 4.3 09:32:35 16° WNW 09:36:10 23° NW 09:39:28 10° NNE
Meteor 1-19 Rocket 4.4 09:32:40 10° N 09:38:03 73° E 09:43:38 10° SSE
Cosmos 2227 4.1 09:32:46 10° NNW 09:38:24 89° WSW 09:44:05 10° SSE
Nadezhda 4 Rocket 4.0 09:32:53 10° SSW 09:38:54 56° W 09:44:51 10° NNW
Cosmos 2221 2.5 09:36:03 10° N 09:40:11 81° E 09:44:24 10° S
Landsat 7 4.1 09:40:35 10° N 09:45:00 43° W 09:48:45 14° SSW
Cosmos 2026 Rocket 4.0 09:40:30 10° S 09:46:54 89° WNW 09:53:18 10° N
Cosmos 836 Rocket 4.4 09:42:50 10° NNW 09:48:05 70° WSW 09:53:22 10° SSE
Cosmos 1092 Rocket 4.1 09:44:34 10° S 09:50:48 81° E 09:56:57 10° N
USA 59 Rocket 4.0 09:45:17 10° NNE 09:51:27 26° ENE 09:58:46 10° SE
YAOGAN 1 4.2 09:48:03 10° NE 09:51:53 33° ESE 09:55:46 10° S
USA 305 3.7 09:53:00 20° SSW 09:53:04 21° SSW 09:56:01 10° SSE
UNK 3.6 09:48:47 10° S 09:53:19 66° WSW 09:57:47 10° NNW
CORIOLIS 4.3 09:49:23 10° N 09:54:33 50° W 09:59:49 10° SSW
Cosmos 1125 Rocket 3.5 09:51:05 10° SSW 09:56:25 81° WNW 10:01:43 10° NNE
Cosmos 1470 2.5 09:53:59 14° SSW 09:56:39 47° W 09:59:49 10° NNW
ATLAS 2AS CENTAUR R/B 3.1 09:51:33 14° SW 09:57:40 50° WNW 10:04:34 10° N
CZ-2D R/B 4.5 09:56:29 10° NE 09:59:04 29° ESE 10:01:40 10° S
COSMO-SKYMED 1 4.5 09:56:02 10° SE 09:59:46 31° E 10:03:27 10° NNE
CZ-4C R/B 1.6 09:58:25 14° SW 10:02:22 57° WNW 10:06:08 10° NNE
Meteor 1-28 Rocket 3.7 10:02:17 10° SSW 10:05:09 28° WSW 10:07:59 10° NW
Cosmos 773 Rocket 4.1 10:00:15 10° NNW 10:05:23 54° WSW 10:10:32 10° S
Cosmos 1484 Rocket 3.1 10:04:07 10° NNW 10:07:07 32° W 10:10:04 11° SSW
Cosmos 1536 4.0 10:08:02 15° WSW 10:09:28 19° W 10:12:07 10° NW
Cosmos 1844 3.8 10:04:39 10° NW 10:10:03 51° WSW 10:15:31 10° S
Meteor 2-9 Rocket 4.0 10:04:54 10° SSW 10:10:16 74° W 10:15:36 10° N
Cosmos 1943 3.2 10:06:09 10° SSW 10:11:54 76° WNW 10:17:31 10° NNE
Cosmos 1461 2.7 10:11:22 11° SW 10:14:45 55° WNW 10:18:18 10° NNE
Cosmos 1812 Rocket 3.6 10:11:23 10° NNW 10:15:39 57° W 10:20:01 10° S
Resurs 01 Rocket 3.2 10:11:40 10° NE 10:15:39 35° ESE 10:19:41 10° S
SL-16 R/B 3.4 10:12:30 11° SW 10:16:28 23° W 10:20:47 10° NNW
Thor Agena Rocket 3.5 10:16:16 10° NNE 10:21:28 82° WNW 10:26:40 10° SSW
USA 281 3.2 10:17:14 10° SSE 10:23:53 78° WSW 10:30:27 10° NNW
USA 276 3.2 10:22:40 11° WSW 10:24:15 17° SW 10:25:59 10° SSE
Intelsat 5-1 Rocket 4.3 10:21:26 10° NW 10:25:00 28° NNE 10:32:16 10° ENE
SL-8 R/B 3.7 10:24:01 10° NW 10:28:49 84° SW 10:33:39 10° SE
CARTOSAT-1 3.6 10:28:56 10° NNE 10:33:09 84° ESE 10:37:26 10° S
SL-16 R/B 3.9 10:30:30 10° SSW 10:34:12 16° WSW 10:37:53 10° W
